Regional Weather Roundup
Issued by NWS State College, PA

Home | Current Version | Previous Version | Text Only | Print | Product List | Glossary Off
Versions: 1 2 3 4 5 6 7 8 9 10 11 12 13 14 15 16 17 18 19 20 21 22 23 24 25 26 27 28 29 30 31 32 33 34 35 36 37 38 39 40 41 42 43 44 45 46 47 48 49 50

000
ASUS41 KCTP 300310
RWRCTP

REGIONAL WEATHER ROUNDUP
NATIONAL WEATHER SERVICE STATE COLLEGE PA
1100 PM EDT MON SEP 29 2014

Note: "fair" indicates few or no clouds below 12,000 feet with no
significant weather and/or obstructions to visibility.

* = STATION THAT DOES NOT REPORT PRECIPITATION /E.G. RAIN...SNOW...ETC/
    THUNDER OR FOG.

PAZ002>004-007>009-013>016-020>023-029>032-300400-
WESTERN PENNSYLVANIA

CITY           SKY/WX    TMP DP  RH WIND       PRES   REMARKS
ERIE           CLEAR     58  53  84 S3        29.91F
MEADVILLE      CLEAR     57  53  86 CALM      29.94S
FRANKLIN*      CLEAR     55  52  88 CALM      29.95F
NEW CASTLE       N/A     57  57 100 CALM      29.94F
BEAVER COUNTY  NOT AVBL
BUTLER*        CLEAR     57  52  82 CALM      29.95F
PITTSBURGH INT CLEAR     67  56  67 CALM      29.93S
PITTSBURGH     CLEAR     68  53  58 NE3       29.93S
INDIANA*       CLOUDY    59  57  94 CALM      29.98S
LATROBE        PTCLDY    59  59 100 CALM      29.94S
WASHINGTON CO* PTCLDY    55  55 100 CALM      29.95S
$$

PAZ004>006-010>012-017>019-024>028-033>037-041-042-045-046-049>053-300400-
CENTRAL PENNSYLVANIA

CITY           SKY/WX    TMP DP  RH WIND       PRES   REMARKS
BRADFORD       CLEAR     50  49  96 CALM      29.96S FOG
DUBOIS         CLEAR     60  51  72 CALM      29.95S
CLEARFIELD     CLEAR     55  54  96 CALM      29.95S
JOHNSTOWN      CLOUDY    62  54  74 SW5       29.97S
ALTOONA        PTCLDY    61  57  87 CALM      29.96S
STATE COLLEGE  CLEAR     62  57  84 W7        29.94S
WILLIAMSPORT   CLEAR     62  58  86 CALM      29.90F
SELINSGROVE    PTCLDY    58  56  93 CALM      29.93S FOG
FT INDIANTOWN  CLOUDY    63  63 100 N1        29.94S
CAPITAL CITY   CLOUDY    69  60  73 NE3       29.92F
HARRISBURG     CLOUDY    67  61  81 SE6       29.92S
YORK           CLOUDY    64  62  93 SE5       29.94S
$$

PAZ038>040-043-044-047-048-054-055-060>062-067>071-300400-
EASTERN PENNSYLVANIA

CITY           SKY/WX    TMP DP  RH WIND       PRES   REMARKS
SCRANTON       MOCLDY    63  56  78 E7        29.93S
MOUNT POCONO   CLOUDY    59  54  83 CALM      29.98S
ALLENTOWN      CLOUDY    65  61  87 W3        29.94S
QUAKERTOWN*    CLOUDY    64  63  94 CALM      29.96S
READING        CLOUDY    67  62  84 S5        29.93F
LANCASTER      CLOUDY    64  62  93 E3        29.95S FOG
COATESVILLE    CLOUDY    63  63 100 CALM      29.97S FOG
POTTSTOWN      CLOUDY    63  61  93 CALM      29.96S
BLUE BELL      CLOUDY    64  61  88 CALM      29.94S
DOYLESTOWN     CLOUDY    64  61  90 CALM      29.94S
WILLOW GROVE   NOT AVBL
NORTH PHILA    CLOUDY    68  60  75 CALM      29.96S
PHILADELPHIA   CLOUDY    67  63  87 S3        29.95S
$$



USA.gov is the U.S. government's official web portal to all federal, state and local government web resources and services.